Voltar ao catálogo

ATLAS 5 CENTAUR DEB

AtivoHEO
NORAD 44645·DEBRIS·🇺🇸 United States

Lançado Oct 17, 2018 de Cape Canaveral Space Force Station

Loading…

Próximas Passagens (próximas 24 horas)

TLE

AtualizadoSource: Space-Track

Época: Sep 14, 2026, 09:16 UTC

1 44645U 18079F   26257.38642111 -.00000162  00000-0  00000-0 0  9996
2 44645  13.5239   7.6504 4650016  12.5008 355.8417  1.89807015 54739

Acompanhe ATLAS 5 CENTAUR DEB em tempo real com AllMySat

Download on the App Store